TimeCDT,TemperatureF,Dew PointF,Humidity,Sea Level PressureIn,VisibilityMPH,Wind Direction,Wind SpeedMPH,Gust SpeedMPH,PrecipitationIn,Events,Conditions,WindDirDegrees,DateUTC
12:05 AM,41.0,39.2,93,30.15,9.0,Calm,Calm,-,N/A,,Clear,0,2012-10-09 05:05:00
12:25 AM,39.2,39.2,100,30.15,10.0,Calm,Calm,-,N/A,,Clear,0,2012-10-09 05:25:00
12:45 AM,39.2,39.2,100,30.14,10.0,Calm,Calm,-,N/A,,Mostly Cloudy,0,2012-10-09 05:45:00
1:05 AM,39.2,37.4,93,30.15,3.0,Calm,Calm,-,N/A,,Overcast,0,2012-10-09 06:05:00
1:25 AM,39.2,37.4,93,30.15,0.8,Calm,Calm,-,N/A,,Overcast,0,2012-10-09 06:25:00
1:45 AM,39.2,37.4,93,30.15,1.0,Calm,Calm,-,N/A,,Mostly Cloudy,0,2012-10-09 06:45:00
2:25 AM,37.4,37.4,100,30.15,0.8,Calm,Calm,-,N/A,,Overcast,0,2012-10-09 07:25:00
2:45 AM,37.4,35.6,93,30.15,3.0,Calm,Calm,-,N/A,,Overcast,0,2012-10-09 07:45:00
3:05 AM,37.4,35.6,93,30.15,1.8,Calm,Calm,-,N/A,,Overcast,0,2012-10-09 08:05:00
3:25 AM,37.4,35.6,93,30.15,2.5,Calm,Calm,-,N/A,,Overcast,0,2012-10-09 08:25:00
3:45 AM,37.4,35.6,93,30.15,3.0,Calm,Calm,-,N/A,,Overcast,0,2012-10-09 08:45:00
4:05 AM,35.6,35.6,100,30.15,3.0,Calm,Calm,-,N/A,,Overcast,0,2012-10-09 09:05:00
4:25 AM,37.4,35.6,93,30.15,9.0,Calm,Calm,-,N/A,,Overcast,0,2012-10-09 09:25:00
4:45 AM,37.4,35.6,93,30.14,10.0,Calm,Calm,-,N/A,,Overcast,0,2012-10-09 09:45:00
5:05 AM,35.6,35.6,100,30.14,1.8,Calm,Calm,-,N/A,,Overcast,0,2012-10-09 10:05:00
5:25 AM,35.6,35.6,100,30.15,5.0,Calm,Calm,-,N/A,,Overcast,0,2012-10-09 10:25:00
5:45 AM,35.6,33.8,93,30.16,5.0,Calm,Calm,-,N/A,,Overcast,0,2012-10-09 10:45:00
6:05 AM,35.6,33.8,93,30.16,0.8,Calm,Calm,-,N/A,,Overcast,0,2012-10-09 11:05:00
6:25 AM,35.6,33.8,93,30.16,0.8,Calm,Calm,-,N/A,,Overcast,0,2012-10-09 11:25:00
6:45 AM,35.6,33.8,93,30.16,9.0,Calm,Calm,-,N/A,,Mostly Cloudy,0,2012-10-09 11:45:00
7:05 AM,35.6,35.6,100,30.17,8.0,Calm,Calm,-,N/A,,Partly Cloudy,0,2012-10-09 12:05:00
7:25 AM,37.4,35.6,93,30.17,10.0,Calm,Calm,-,N/A,,Clear,0,2012-10-09 12:25:00
7:45 AM,39.2,37.4,93,30.18,9.0,Calm,Calm,-,N/A,,Scattered Clouds,0,2012-10-09 12:45:00
8:05 AM,39.2,37.4,93,30.17,10.0,Calm,Calm,-,N/A,,Scattered Clouds,0,2012-10-09 13:05:00
8:25 AM,41.0,39.2,93,30.18,7.0,Calm,Calm,-,N/A,,Clear,0,2012-10-09 13:25:00
8:45 AM,44.6,42.8,93,30.17,10.0,Calm,Calm,-,N/A,,Clear,0,2012-10-09 13:45:00
9:05 AM,48.2,44.6,87,30.18,10.0,Calm,Calm,-,N/A,,Clear,0,2012-10-09 14:05:00
9:25 AM,51.8,46.4,82,30.18,10.0,SSE,3.5,-,N/A,,Clear,160,2012-10-09 14:25:00
9:45 AM,55.4,46.4,72,30.18,10.0,South,3.5,-,N/A,,Clear,170,2012-10-09 14:45:00
10:05 AM,55.4,44.6,67,30.18,10.0,SSE,3.5,-,N/A,,Clear,160,2012-10-09 15:05:00
10:25 AM,57.2,44.6,63,30.17,10.0,Calm,Calm,-,N/A,,Clear,0,2012-10-09 15:25:00
10:45 AM,59.0,41.0,51,30.17,10.0,Calm,Calm,-,N/A,,Clear,0,2012-10-09 15:45:00
11:05 AM,59.0,41.0,51,30.16,10.0,South,4.6,-,N/A,,Partly Cloudy,180,2012-10-09 16:05:00
11:25 AM,59.0,41.0,51,30.15,10.0,SSE,4.6,-,N/A,,Clear,160,2012-10-09 16:25:00
11:45 AM,60.8,41.0,48,30.15,10.0,SSE,4.6,-,N/A,,Clear,150,2012-10-09 16:45:00
12:05 PM,60.8,41.0,48,30.14,10.0,NW,3.5,-,N/A,,Clear,310,2012-10-09 17:05:00
12:25 PM,62.6,42.8,48,30.13,10.0,South,5.8,-,N/A,,Partly Cloudy,180,2012-10-09 17:25:00
12:45 PM,62.6,42.8,48,30.12,10.0,SSE,3.5,-,N/A,,Partly Cloudy,160,2012-10-09 17:45:00
1:05 PM,62.6,42.8,48,30.11,10.0,SE,6.9,-,N/A,,Scattered Clouds,140,2012-10-09 18:05:00
1:25 PM,64.4,42.8,45,30.10,10.0,South,4.6,-,N/A,,Partly Cloudy,180,2012-10-09 18:25:00
1:45 PM,64.4,42.8,45,30.08,10.0,SE,8.1,-,N/A,,Clear,140,2012-10-09 18:45:00
2:05 PM,64.4,42.8,45,30.07,10.0,South,6.9,-,N/A,,Clear,190,2012-10-09 19:05:00
2:25 PM,64.4,42.8,45,30.07,10.0,ESE,3.5,-,N/A,,Clear,120,2012-10-09 19:25:00
2:45 PM,64.4,42.8,45,30.06,10.0,Calm,Calm,-,N/A,,Clear,0,2012-10-09 19:45:00
3:05 PM,66.2,44.6,46,30.06,10.0,SSW,3.5,-,N/A,,Clear,210,2012-10-09 20:05:00
3:25 PM,66.2,44.6,46,30.05,10.0,SSE,5.8,-,N/A,,Clear,160,2012-10-09 20:25:00
3:45 PM,66.2,44.6,46,30.05,10.0,SSW,3.5,-,N/A,,Clear,200,2012-10-09 20:45:00
4:05 PM,66.2,44.6,46,30.04,10.0,South,5.8,-,N/A,,Clear,180,2012-10-09 21:05:00
4:25 PM,66.2,44.6,46,30.04,10.0,SW,5.8,-,N/A,,Clear,230,2012-10-09 21:25:00
4:45 PM,66.2,44.6,46,30.03,10.0,SSW,6.9,-,N/A,,Clear,200,2012-10-09 21:45:00
5:05 PM,64.4,44.6,49,30.03,10.0,SSE,9.2,-,N/A,,Clear,160,2012-10-09 22:05:00
5:25 PM,64.4,44.6,49,30.02,10.0,SSE,8.1,-,N/A,,Clear,160,2012-10-09 22:25:00
5:45 PM,62.6,44.6,52,30.02,10.0,South,5.8,-,N/A,,Clear,170,2012-10-09 22:45:00
6:05 PM,60.8,46.4,59,30.02,10.0,South,4.6,-,N/A,,Clear,170,2012-10-09 23:05:00
6:25 PM,60.8,44.6,55,30.02,10.0,South,4.6,-,N/A,,Clear,170,2012-10-09 23:25:00
6:45 PM,59.0,46.4,63,30.02,10.0,South,4.6,-,N/A,,Clear,170,2012-10-09 23:45:00
7:05 PM,55.4,46.4,72,30.02,10.0,SSE,3.5,-,N/A,,Clear,160,2012-10-10 00:05:00
7:25 PM,55.4,46.4,72,30.02,10.0,Calm,Calm,-,N/A,,Clear,0,2012-10-10 00:25:00
7:45 PM,53.6,46.4,77,30.03,10.0,Calm,Calm,-,N/A,,Clear,0,2012-10-10 00:45:00
8:05 PM,50.0,46.4,87,30.04,10.0,Calm,Calm,-,N/A,,Clear,0,2012-10-10 01:05:00
8:25 PM,50.0,46.4,87,30.05,10.0,WNW,3.5,-,N/A,,Clear,300,2012-10-10 01:25:00
8:45 PM,50.0,48.2,94,30.05,10.0,Calm,Calm,-,N/A,,Clear,0,2012-10-10 01:45:00
9:05 PM,48.2,46.4,93,30.05,10.0,SE,3.5,-,N/A,,Clear,140,2012-10-10 02:05:00
9:25 PM,48.2,46.4,93,30.05,10.0,SE,3.5,-,N/A,,Clear,140,2012-10-10 02:25:00
9:45 PM,48.2,46.4,93,30.05,10.0,Calm,Calm,-,N/A,,Clear,0,2012-10-10 02:45:00
10:05 PM,48.2,46.4,93,30.06,10.0,SSE,3.5,-,N/A,,Partly Cloudy,160,2012-10-10 03:05:00
10:25 PM,48.2,46.4,93,30.05,10.0,SE,4.6,-,N/A,,Partly Cloudy,140,2012-10-10 03:25:00
10:45 PM,50.0,48.2,94,30.05,10.0,SSE,3.5,-,N/A,,Partly Cloudy,150,2012-10-10 03:45:00
11:05 PM,50.0,48.2,94,30.06,10.0,Calm,Calm,-,N/A,,Mostly Cloudy,0,2012-10-10 04:05:00
11:25 PM,50.0,48.2,94,30.07,10.0,Calm,Calm,-,N/A,,Overcast,0,2012-10-10 04:25:00
11:45 PM,51.8,48.2,88,30.06,10.0,ESE,3.5,-,N/A,,Overcast,110,2012-10-10 04:45:00